Flint, MI

4:27 AM EST on January 21, 2018 (GMT -0500)
Bishop International

Weather History for KFNT - November, 2011

Change the Weather History Date:

Friday, November 25, 2011

  Actual Average Record
Temperature  
Mean Temperature 52 °F 35 °F  
Max Temperature 63 °F 42 °F 63 °F (2001)
Min Temperature 41 °F 28 °F 9 °F (1950)
Degree Days  
Heating Degree Days 13 30  
Month to date heating degree days 511 629  
Since 1 July heating degree days 1087 1325  
Cooling Degree Days 0 0  
Month to date cooling degree days 0 0  
Year to date cooling degree days 819 531  
Growing Degree Days 2 (Base 50)    
Moisture  
Dew Point 36 °F    
Average Humidity 58    
Maximum Humidity 82    
Minimum Humidity 34    
Precipitation  
Precipitation 0.00 in 0.09 in 1.71 in (1987)
Month to date precipitation 1.02 2.27  
Year to date precipitation 37.08 29.05  
Snow  
Snow 0.00 in 0.10 in 6.50 in (1950)
Month to date snowfall T 1.6  
Since 1 July snowfall T 2.0  
Since 1 September snowfall T 2.0  
Snow Depth 0.00 in    
Sea Level Pressure  
Sea Level Pressure 29.99 in    
Wind  
Wind Speed 11 mph (SSW)    
Max Wind Speed 22 mph    
Max Gust Speed 30 mph    
Visibility 10 miles    
Events      
T = Trace of Precipitation, MM = Missing Value Source: NWS Daily Summary

Daily Weather History Graph

Daily Weather History Graph

Search for Another Location

Airport or City:

Trip Planner

Search our weather history database for the weather conditions in past years. The results will help you decide how hot, cold, wet, or windy it might be!

Date:

Astronomy

Nov. 25, 2011 Rise Set
Actual Time 7:39 AM EST 5:04 PM EST
Civil Twilight 7:07 AM EST 5:35 PM EST
Nautical Twilight 6:32 AM EST 6:10 PM EST
Astronomical Twilight 5:59 AM EST 6:44 PM EST
Moon 8:07 AM EST (11/25) 5:29 PM EST (11/25)
Length of Visible Light 10h 27m
Length of Day
9h 24m
New Moon, 0% of the Moon is Illuminated
Nov 25
New Moon
Dec 2
First Quarter
Dec 10
Full
Dec 17
Last Quarter
Dec 24
New

Hourly Weather History & Observations

Time (EST) Temp. Windchill Dew Point Humidity Pressure Visibility Wind Dir Wind Speed Gust Speed Precip Events Conditions
12:53 AM 42.1 °F 36.1 °F 37.9 °F 85% 30.08 in 8.0 mi SSW 10.4 mph 18.4 mph N/A   Clear
1:53 AM 42.1 °F 36.1 °F 37.0 °F 82% 30.07 in 8.0 mi SSW 10.4 mph - N/A   Clear
2:53 AM 42.8 °F 37.0 °F 35.6 °F 76% 30.06 in 9.0 mi SSW 10.4 mph - N/A   Clear
3:53 AM 42.1 °F 35.7 °F 36.0 °F 79% 30.06 in 10.0 mi SSW 11.5 mph - N/A   Clear
4:53 AM 42.1 °F 36.1 °F 35.1 °F 76% 30.05 in 10.0 mi SW 10.4 mph - N/A   Clear
5:53 AM 43.0 °F 36.8 °F 34.0 °F 71% 30.04 in 10.0 mi SSW 11.5 mph - N/A   Clear
6:53 AM 43.0 °F 37.7 °F 34.0 °F 71% 30.05 in 10.0 mi SSW 9.2 mph - N/A   Clear
7:53 AM 44.1 °F 38.6 °F 33.1 °F 65% 30.04 in 10.0 mi SSW 10.4 mph - N/A   Clear
8:53 AM 46.0 °F 41.0 °F 34.0 °F 63% 30.04 in 10.0 mi SSW 10.4 mph - N/A   Clear
9:53 AM 50.0 °F - 34.0 °F 54% 30.01 in 10.0 mi SSW 12.7 mph 20.7 mph N/A   Clear
10:53 AM 53.6 °F - 35.6 °F 51% 29.98 in 10.0 mi SSW 10.4 mph - N/A   Clear
11:53 AM 57.9 °F - 36.0 °F 44% 29.97 in 10.0 mi SSW 11.5 mph - N/A   Clear
12:53 PM 60.1 °F - 34.0 °F 38% 29.94 in 10.0 mi SW 16.1 mph 21.9 mph N/A   Clear
1:53 PM 62.1 °F - 34.0 °F 35% 29.93 in 10.0 mi SW 15.0 mph 25.3 mph N/A   Clear
2:53 PM 61.0 °F - 35.1 °F 38% 29.92 in 10.0 mi SW 16.1 mph 23.0 mph N/A   Clear
3:53 PM 60.8 °F - 35.6 °F 39% 29.91 in 10.0 mi SSW 10.4 mph - N/A   Clear
4:53 PM 57.9 °F - 36.0 °F 44% 29.92 in 10.0 mi SSW 11.5 mph 21.9 mph N/A   Clear
5:53 PM 55.9 °F - 37.0 °F 49% 29.94 in 10.0 mi SSW 9.2 mph - N/A   Clear
6:53 PM 55.0 °F - 37.9 °F 53% 29.94 in 10.0 mi SSW 6.9 mph - N/A   Clear
7:53 PM 55.0 °F - 39.9 °F 57% 29.95 in 10.0 mi SSW 11.5 mph - N/A   Clear
8:53 PM 54.0 °F - 39.9 °F 59% 29.96 in 10.0 mi SSW 8.1 mph - N/A   Clear
9:53 PM 53.1 °F - 39.9 °F 61% 29.98 in 10.0 mi SSW 9.2 mph - N/A   Clear
10:53 PM 53.6 °F - 39.2 °F 58% 29.98 in 10.0 mi SW 9.2 mph - N/A   Clear
11:53 PM 53.6 °F - 39.2 °F 58% 29.99 in 10.0 mi SW 10.4 mph - N/A   Clear